| time (UTC) | temp F | wind direction | speed MPH | gust MPH | rain 1hr in | rain 24hr in | rain mn in | humidity % | barometer mb |
| 20260903100055 | 69 | 193 | 4.0 | 6.0 | 0.00 | 0.00 | 0.00 | 93 | 1012.5 |
| 20260903094616 | 69 | 190 | 4.0 | 6.0 | 0.00 | 0.00 | 0.00 | 94 | 1012.5 |
| 20260903093056 | 68 | 200 | 4.0 | 6.0 | 0.00 | 0.00 | 0.00 | 94 | 1012.5 |
| 20260903091549 | 68 | 219 | 4.0 | 5.0 | 0.00 | 0.00 | 0.00 | 94 | 1012.5 |
| 20260903090100 | 68 | 0 | 0.0 | 4.0 | 0.00 | 0.00 | 0.00 | 93 | 1012.5 |
| 20260903084559 | 68 | 219 | 2.0 | 4.0 | 0.00 | 0.00 | 0.00 | 94 | 1012.5 |
| 20260903083053 | 68 | 219 | 3.0 | 4.0 | 0.00 | 0.00 | 0.00 | 94 | 1012.6 |
| 20260903081551 | 68 | 219 | 1.0 | 4.0 | 0.00 | 0.00 | 0.00 | 94 | 1012.5 |
| 20260903080058 | 68 | 219 | 0.0 | 3.0 | 0.00 | 0.00 | 0.00 | 93 | 1012.5 |
| 20260903074605 | 68 | 219 | 2.0 | 3.0 | 0.00 | 0.00 | 0.00 | 93 | 1012.3 |
| 20260903073056 | 68 | 219 | 1.0 | 3.0 | 0.00 | 0.00 | 0.00 | 93 | 1012.4 |
| 20260903071552 | 68 | 219 | 1.0 | 3.0 | 0.00 | 0.00 | 0.00 | 93 | 1012.6 |
| 20260903070051 | 69 | 219 | 1.0 | 4.0 | 0.00 | 0.00 | 0.00 | 93 | 1012.7 |
| 20260903064554 | 69 | 219 | 1.0 | 4.0 | 0.00 | 0.00 | 0.00 | 93 | 1012.7 |
| 20260903063046 | 69 | 219 | 3.0 | 4.0 | 0.00 | 0.00 | 0.00 | 93 | 1012.7 |
| 20260903061553 | 69 | 219 | 2.0 | 4.0 | 0.00 | 0.00 | 0.00 | 92 | 1012.7 |
| 20260903060055 | 69 | 219 | 2.0 | 4.0 | 0.00 | 0.00 | 0.00 | 92 | 1012.7 |
| 20260903054547 | 69 | 219 | 1.0 | 5.0 | 0.00 | 0.00 | 0.00 | 91 | 1012.9 |
| 20260903053102 | 69 | 219 | 2.0 | 4.0 | 0.00 | 0.00 | 0.00 | 91 | 1012.5 |
| 20260903051559 | 69 | 219 | 1.0 | 5.0 | 0.00 | 0.00 | 0.00 | 91 | 1012.5 |
| 20260903050100 | 70 | 219 | 0.0 | 5.0 | 0.00 | 0.00 | 0.00 | 91 | 1012.2 |
| 20260903044553 | 70 | 219 | 0.0 | 3.0 | 0.00 | 0.00 | 0.00 | 91 | 1012.2 |
| 20260903043057 | 70 | 219 | 2.0 | 11.0 | 0.00 | 0.00 | 0.00 | 90 | 1011.6 |
| 20260903041610 | 70 | 184 | 7.0 | 11.0 | 0.00 | 0.00 | 0.00 | 90 | 1011.7 |
| 20260903040117 | 70 | 172 | 6.0 | 12.0 | 0.00 | 0.00 | 0.00 | 90 | 1011.9 |
| 20260903034551 | 70 | 219 | 7.0 | 12.0 | 0.00 | 0.00 | 0.00 | 90 | 1012.0 |
| 20260903033057 | 70 | 248 | 7.0 | 15.0 | 0.00 | 0.00 | 0.00 | 89 | 1012.2 |
| 20260903031547 | 70 | 214 | 8.0 | 16.0 | 0.00 | 0.00 | 0.00 | 90 | 1012.0 |
| 20260903030057 | 70 | 234 | 8.0 | 16.0 | 0.00 | 0.00 | 0.00 | 90 | 1012.1 |
| 20260903024553 | 70 | 201 | 8.0 | 17.0 | 0.00 | 0.00 | 0.00 | 89 | 1012.1 |
| 20260903023049 | 70 | 230 | 12.0 | 18.0 | 0.00 | 0.00 | 0.00 | 89 | 1012.6 |
| 20260903021547 | 70 | 197 | 12.0 | 18.0 | 0.00 | 0.00 | 0.00 | 90 | 1011.7 |
| 20260903020046 | 70 | 222 | 11.0 | 17.0 | 0.00 | 0.00 | 0.00 | 91 | 1011.8 |
| 20260903014556 | 70 | 186 | 10.0 | 18.0 | 0.00 | 0.00 | 0.00 | 92 | 1011.7 |
| 20260903013050 | 69 | 196 | 11.0 | 20.0 | 0.00 | 0.00 | 0.00 | 92 | 1012.0 |
| 20260903011552 | 69 | 193 | 8.0 | 14.0 | 0.00 | 0.00 | 0.00 | 92 | 1012.7 |
| 20260903010047 | 69 | 186 | 9.0 | 14.0 | 0.00 | 0.00 | 0.00 | 92 | 1013.5 |
| 20260903004558 | 69 | 232 | 6.0 | 14.0 | 0.00 | 0.00 | 0.00 | 92 | 1013.0 |
| 20260903003052 | 68 | 184 | 9.0 | 14.0 | 0.00 | 0.00 | 0.00 | 91 | 1012.3 |
| 20260903001601 | 69 | 211 | 4.0 | 10.0 | 0.00 | 0.00 | 0.00 | 91 | 1013.6 |
| 20260902234553 | 74 | 252 | 16.0 | 28.0 | 0.00 | 0.00 | 0.00 | 87 | 1014.7 |
| 20260902233051 | 76 | 84 | 4.0 | 8.0 | 0.00 | 0.00 | 0.00 | 89 | 1010.9 |
| 20260902231549 | 77 | 144 | 2.0 | 4.0 | 0.00 | 0.00 | 0.00 | 89 | 1011.9 |
| 20260902230114 | 78 | 144 | 1.0 | 3.0 | 0.00 | 0.00 | 0.00 | 89 | 1011.9 |
| 20260902224558 | 78 | 144 | 1.0 | 2.0 | 0.00 | 0.00 | 0.00 | 86 | 1012.2 |
| 20260902223053 | 79 | 0 | 0.0 | 0.0 | 0.00 | 0.00 | 0.00 | 87 | 1011.7 |
| 20260902221601 | 79 | 0 | 0.0 | 0.0 | 0.00 | 0.00 | 0.00 | 87 | 1011.8 |
| 20260902220057 | 79 | 0 | 0.0 | 0.0 | 0.00 | 0.00 | 0.00 | 86 | 1011.7 |
| 20260902214548 | 78 | 0 | 0.0 | 3.0 | 0.00 | 0.00 | 0.00 | 86 | 1012.0 |
| 20260902213048 | 78 | 144 | 3.0 | 7.0 | 0.00 | 0.00 | 0.00 | 86 | 1012.0 |
| 20260902211551 | 78 | 149 | 3.0 | 7.0 | 0.00 | 0.00 | 0.00 | 84 | 1012.2 |
| 20260902210100 | 80 | 60 | 2.0 | 5.0 | 0.00 | 0.00 | 0.00 | 80 | 1013.1 |
| 20260902204545 | 81 | 0 | 0.0 | 3.0 | 0.00 | 0.00 | 0.00 | 79 | 1013.7 |
| 20260902203100 | 82 | 333 | 3.0 | 6.0 | 0.00 | 0.00 | 0.00 | 77 | 1014.1 |
| 20260902201555 | 83 | 325 | 2.0 | 6.0 | 0.00 | 0.00 | 0.00 | 77 | 1014.0 |
| 20260902200105 | 84 | 254 | 4.0 | 8.0 | 0.00 | 0.00 | 0.00 | 76 | 1014.0 |
| 20260902194558 | 84 | 240 | 5.0 | 8.0 | 0.00 | 0.00 | 0.00 | 74 | 1014.0 |
| 20260902193057 | 85 | 213 | 5.0 | 11.0 | 0.00 | 0.00 | 0.00 | 74 | 1013.4 |
| 20260902191600 | 84 | 190 | 6.0 | 11.0 | 0.00 | 0.00 | 0.00 | 76 | 1013.2 |
| 20260902190118 | 83 | 199 | 7.0 | 12.0 | 0.00 | 0.00 | 0.00 | 76 | 1013.3 |
| 20260902184558 | 84 | 167 | 6.0 | 12.0 | 0.00 | 0.00 | 0.00 | 75 | 1013.1 |
| 20260902183048 | 84 | 210 | 7.0 | 12.0 | 0.00 | 0.00 | 0.00 | 74 | 1013.4 |
| 20260902181610 | 83 | 194 | 5.0 | 11.0 | 0.00 | 0.00 | 0.00 | 77 | 1013.7 |
| 20260902180054 | 83 | 191 | 8.0 | 13.0 | 0.00 | 0.00 | 0.00 | 76 | 1014.1 |
| 20260902174556 | 82 | 183 | 8.0 | 16.0 | 0.00 | 0.00 | 0.00 | 77 | 1014.4 |
| 20260902173050 | 81 | 204 | 8.0 | 15.0 | 0.00 | 0.00 | 0.00 | 79 | 1014.4 |
| 20260902171610 | 81 | 178 | 6.0 | 18.0 | 0.00 | 0.00 | 0.00 | 82 | 1014.3 |
| 20260902170056 | 79 | 190 | 8.0 | 16.0 | 0.00 | 0.00 | 0.00 | 82 | 1014.2 |
| 20260902164551 | 78 | 189 | 10.0 | 18.0 | 0.00 | 0.00 | 0.00 | 85 | 1014.5 |
| 20260902163050 | 77 | 163 | 10.0 | 17.0 | 0.00 | 0.00 | 0.00 | 86 | 1014.7 |
| 20260902161603 | 77 | 207 | 10.0 | 20.0 | 0.00 | 0.00 | 0.00 | 87 | 1014.8 |
| 20260902160045 | 76 | 175 | 10.0 | 20.0 | 0.00 | 0.00 | 0.00 | 88 | 1015.0 |
| 20260902154550 | 75 | 192 | 9.0 | 15.0 | 0.00 | 0.00 | 0.00 | 91 | 1015.0 |
| 20260902153051 | 74 | 172 | 7.0 | 15.0 | 0.00 | 0.00 | 0.00 | 93 | 1014.7 |
| 20260902151550 | 73 | 175 | 7.0 | 12.0 | 0.00 | 0.00 | 0.00 | 95 | 1015.1 |
| 20260902150046 | 71 | 149 | 5.0 | 12.0 | 0.00 | 0.00 | 0.00 | 96 | 1014.9 |
| 20260902144559 | 70 | 199 | 3.0 | 13.0 | 0.00 | 0.00 | 0.00 | 96 | 1015.2 |
| 20260902143054 | 69 | 133 | 7.0 | 15.0 | 0.00 | 0.00 | 0.00 | 96 | 1015.5 |
| 20260902141552 | 68 | 144 | 9.0 | 19.0 | 0.00 | 0.00 | 0.00 | 95 | 1015.1 |
| 20260902140052 | 69 | 140 | 7.0 | 11.0 | 0.00 | 0.00 | 0.00 | 95 | 1016.0 |
| 20260902134554 | 69 | 355 | 4.0 | 8.0 | 0.00 | 0.00 | 0.00 | 95 | 1017.1 |
| 20260902133055 | 70 | 29 | 3.0 | 10.0 | 0.00 | 0.00 | 0.00 | 95 | 1016.5 |
| 20260902131549 | 70 | 340 | 3.0 | 8.0 | 0.00 | 0.00 | 0.00 | 96 | 1017.3 |
| 20260902130053 | 70 | 105 | 2.0 | 8.0 | 0.00 | 0.00 | 0.00 | 96 | 1016.1 |
| 20260902124553 | 70 | 95 | 3.0 | 8.0 | 0.00 | 0.00 | 0.00 | 96 | 1015.9 |
| 20260902123058 | 70 | 121 | 0.0 | 6.0 | 0.00 | 0.00 | 0.00 | 96 | 1016.2 |
| 20260902121549 | 70 | 103 | 4.0 | 8.0 | 0.00 | 0.00 | 0.00 | 96 | 1015.3 |
| 20260902120054 | 70 | 29 | 1.0 | 7.0 | 0.00 | 0.00 | 0.00 | 96 | 1015.8 |
| 20260902114548 | 70 | 157 | 6.0 | 12.0 | 0.00 | 0.00 | 0.00 | 96 | 1014.9 |
| 20260902113045 | 70 | 169 | 8.0 | 15.0 | 0.00 | 0.00 | 0.00 | 96 | 1014.5 |
| 20260902111553 | 70 | 184 | 8.0 | 16.0 | 0.00 | 0.00 | 0.00 | 96 | 1013.8 |
| 20260902110046 | 69 | 169 | 10.0 | 18.0 | 0.00 | 0.00 | 0.00 | 96 | 1014.0 |
| 20260902104545 | 69 | 172 | 9.0 | 14.0 | 0.00 | 0.00 | 0.00 | 96 | 1013.9 |
| 20260902103051 | 69 | 157 | 8.0 | 15.0 | 0.00 | 0.00 | 0.00 | 96 | 1013.9 |
| 20260902101548 | 69 | 164 | 9.0 | 15.0 | 0.00 | 0.00 | 0.00 | 96 | 1014.1 |